DW2973 Weather Reports


time (UTC)temp
C
wind
direction
speed
KPH
gust
KPH
rain 1hr
cm
rain 24hr
cm
rain mn
cm
humidity
%
barometer
mb
20260504230052 8 323 0.0 0.0 0.00 0.00 0.00 82 1010.9
20260504224550 8 322 0.0 0.0 0.00 0.00 0.00 81 1010.9
20260504223050 8 313 0.0 0.0 0.00 0.00 0.00 81 1010.8
20260504221557 8 10 0.0 0.0 0.00 0.00 0.00 81 1010.8
20260504220046 8 336 0.0 0.0 0.00 0.00 0.00 81 1011.0
20260504214545 8 291 0.0 0.0 0.00 0.00 0.15 82 1011.0
20260504213043 8 344 0.0 0.0 0.00 0.00 0.15 82 1010.9
20260504211549 9 344 0.0 0.0 0.00 0.00 0.15 82 1011.0
20260504210100 9 344 0.0 0.0 0.00 0.00 0.15 81 1011.0
20260504204548 9 344 0.0 0.0 0.00 0.00 0.15 83 1010.9
20260504203045 9 348 0.0 0.0 0.00 0.00 0.15 83 1010.9
20260504201545 9 348 0.0 0.0 0.00 0.00 0.15 82 1010.7
20260504200036 10 348 0.0 0.0 0.00 0.00 0.15 81 1010.8
20260504194556 10 348 0.0 0.0 0.00 0.00 0.15 80 1010.7
20260504193033 10 336 0.0 0.0 0.00 0.00 0.15 79 1010.7
20260504191542 11 250 0.0 0.0 0.00 0.00 0.15 76 1010.6
20260504190035 11 250 0.0 0.0 0.00 0.00 0.15 73 1010.5
20260504184537 12 250 0.0 0.0 0.00 0.00 0.15 70 1010.3
20260504183030 12 250 0.0 0.0 0.00 0.00 0.15 67 1010.2
20260504181529 13 248 0.0 0.0 0.00 0.00 0.15 65 1010.2
20260504180038 13 248 0.0 0.0 0.00 0.00 0.15 64 1010.2
20260504174528 13 248 0.0 0.0 0.00 0.00 0.15 63 1010.1
20260504173028 13 245 0.0 0.0 0.00 0.00 0.15 61 1010.2
20260504171528 15 326 0.0 0.0 0.00 0.00 0.15 60 1010.2
20260504081533 10 269 0.0 0.0 0.00 0.00 0.15 91 1008.2
20260504050017 10 355 0.0 0.0 0.00 0.00 0.15 93 1005.6
20260504044515 10 355 0.0 0.0 0.00 0.00 0.15 93 1005.3
20260504043015 10 355 0.0 0.0 0.00 0.00 0.15 93 1005.2
20260504041514 10 360 0.0 0.0 0.00 0.00 0.15 93 1005.1
20260504040013 11 322 0.0 0.0 0.00 0.00 0.15 93 1005.1
20260504034510 11 355 0.0 0.0 0.00 0.00 0.15 93 1005.0
20260504033009 12 236 0.0 0.0 0.00 0.00 0.15 93 1005.0
20260504031509 12 248 3.2 0.0 0.00 0.00 0.15 93 1005.1
20260504030007 12 228 6.4 0.0 0.00 0.00 0.15 93 1005.0
20260504024505 12 242 3.2 0.0 0.00 0.00 0.15 94 1005.0
20260504023005 11 228 3.2 0.0 0.00 0.00 0.15 93 1005.1
20260504021504 11 265 0.0 0.0 0.00 0.00 0.15 93 1005.1
20260504020004 11 265 0.0 0.0 0.00 0.00 0.15 93 1005.2
20260504014505 11 265 0.0 0.0 0.00 0.00 0.15 93 1005.0
20260504013001 11 265 0.0 0.0 0.00 0.00 0.15 93 1005.1
20260504011501 11 265 0.0 0.0 0.00 0.00 0.15 93 1005.2
20260504010125 11 265 0.0 0.0 0.00 0.00 0.15 93 1005.2
20260504004600 11 265 0.0 0.0 0.00 0.00 0.15 93 1005.4
20260504003058 11 265 0.0 0.0 0.00 0.00 0.13 93 1005.2
20260504001611 11 265 0.0 0.0 0.00 0.00 0.13 92 1005.4
20260504000105 12 265 0.0 0.0 0.00 0.00 0.13 93 1005.4
20260503234553 12 265 0.0 0.0 0.00 0.00 0.13 92 1005.6
20260503233050 12 265 0.0 0.0 0.00 0.00 0.10 92 1005.8
20260503231553 12 265 0.0 0.0 0.00 0.00 0.10 92 1006.0